[[{"header":{"parameterUnit":"m.s-1","parameterCategory":1,"la1":30.2991,"la2":30.254,"lo1":-89.0895,"lo2":-89.0444,"dy":0.0017,"dx":0.0017,"nx":28,"ny":28,"refTime":"2025-08-25T03:00:00:Z","depth":0,"parameterNumber":2,"parameterNumberName":"U-component_of_WINDS"},"data":[0,0,0,0,0,0,0,0,0,0,0,0,0,0,0,0,0,0,0,0,0,0,0,0,0,0,0,0,0,0,0,0,0,0,0,0,0,0,0,0,0,0,0,0,0,0,0,0,0,0,0,0,0,0,0,0,0,0,-3.2545,-3.2545,0,-3.2571,-3.2571,-3.2571,-3.2526,-3.2525,-3.2523,-3.2522,-3.2549,-3.2552,-3.2554,0,0,0,0,0,0,0,0,0,0,0,0,0,-3.2457,-3.2459,-3.2545,-3.2545,-3.2545,-3.2571,-3.2571,-3.2572,-3.2526,-3.2525,-3.2523,-3.2521,-3.2549,-3.2551,-3.2554,0,0,0,0,0,0,0,0,0,0,0,0,0,-3.249,-3.2459,-3.2545,-3.2526,-3.2524,-3.2571,-3.2571,-3.2572,-3.2527,-3.2525,-3.2522,-3.252,-3.2548,-3.2551,-3.2554,-3.262,0,0,-3.2564,-3.2566,0,0,0,0,0,0,0,0,-3.2489,-3.2494,-3.2528,-3.2527,-3.2526,-3.2543,-3.255,-3.2588,-3.2527,-3.2526,-3.2522,-3.2519,-3.2549,-3.2552,-3.2562,-3.2622,-3.2623,-3.2564,-3.2566,-3.2568,-3.2569,0,0,0,0,0,0,0,-3.2486,-3.2492,-3.2555,-3.2529,-3.2527,-3.2517,-3.2519,-3.2557,-3.255,-3.2526,-3.2523,-3.2526,-3.2548,-3.2559,-3.2562,-3.2623,-3.2564,-3.2567,-3.2569,-3.2571,-3.274,-3.2742,0,0,0,0,0,0,-3.2486,-3.2491,-3.2554,-3.2556,-3.2501,-3.252,-3.2523,-3.254,-3.255,-3.2549,-3.2528,-3.2524,-3.2555,-3.2559,-3.2563,-3.2642,-3.2568,-3.2571,-3.2573,-3.2737,-3.274,-3.2743,0,0,0,0,0,0,-3.2484,-3.2492,-3.2553,-3.2522,-3.2529,-3.2524,-3.2544,-3.2541,-3.2552,-3.2551,-3.255,-3.2541,-3.2553,-3.2559,-3.2607,-3.2643,-3.2572,-3.2575,-3.2734,-3.2738,-3.2742,-3.2801,0,0,0,0,0,0,-3.2482,-3.2492,-3.2517,-3.2523,-3.2531,-3.2596,-3.2546,-3.2544,-3.2558,-3.2553,-3.2563,-3.2562,-3.2552,-3.2602,-3.261,-3.2646,-3.2578,-3.2731,-3.2736,-3.274,-3.2795,-3.2806,-3.2815,0,0,0,0,0,-3.2479,-3.2532,-3.2518,-3.2526,-3.2562,-3.2598,-3.2603,-3.2589,-3.2561,-3.2586,-3.2586,-3.2562,-3.2637,-3.2607,-3.2616,-3.2653,-3.2729,-3.2734,-3.274,-3.2791,-3.2804,-3.2815,0,0,0,0,0,0,-3.253,-3.2533,-3.2517,-3.2574,-3.2586,-3.259,-3.2622,-3.2603,-3.2624,-3.2618,-3.26,-3.2603,-3.2655,-3.2659,-3.2625,-3.2718,-3.2678,-3.2686,-3.2714,-3.2726,-3.2736,-3.2735,-3.2581,0,0,0,0,0,-3.2548,-3.2576,-3.2577,-3.2627,-3.2634,-3.2627,-3.2642,-3.2631,-3.2643,-3.2648,-3.2651,-3.2664,-3.2691,-3.2708,-3.2733,-3.2795,-3.2798,-3.2825,-3.2835,-3.2843,-3.285,-3.2885,-3.2898,-3.2762,-3.2762,-3.2761,0,0,-3.2585,-3.259,-3.2609,-3.2638,-3.2646,-3.2677,-3.2632,-3.2666,-3.2689,-3.2653,-3.2699,-3.2702,-3.2715,-3.2771,-3.2796,-3.2776,-3.2888,-3.285,-3.2857,-3.286,-3.2892,-3.2905,-3.2917,-3.2766,-3.2765,-3.2764,0,0,-3.2668,-3.2674,-3.2717,-3.2727,-3.274,-3.2734,-3.2745,-3.2752,-3.2753,-3.2798,-3.2772,-3.28,-3.2846,-3.2857,-3.2868,-3.2957,-3.2936,-3.2965,-3.3017,-3.3051,-3.3062,-3.3071,-3.3104,-3.3116,-3.2972,-3.2972,-3.2972,0,-3.2713,-3.2758,-3.2742,-3.2778,-3.2792,-3.2761,-3.2805,-3.2815,-3.2835,-3.2846,-3.2823,-3.2881,-3.2887,-3.2946,-3.2968,-3.2978,-3.299,-3.2965,-3.3061,-3.3071,-3.3079,-3.3111,-3.3123,-3.2976,-3.2975,-3.2975,-3.2975,0,-3.2813,-3.2845,-3.2878,-3.2899,-3.2916,-3.2956,-3.2946,-3.2966,-3.2953,-3.2951,-3.2998,-3.3005,-3.3031,-3.3044,-3.3032,-3.3102,-3.3089,-3.3064,-3.3023,-3.3096,-3.3125,-3.3137,-3.2981,-3.298,-3.2979,-3.2978,0,0,-3.2929,-3.2941,-3.2954,-3.2963,-3.2975,-3.3,-3.3039,-3.3064,-3.3082,-3.3097,-3.313,-3.317,-3.3147,-3.3161,-3.3149,-3.3179,-3.325,-3.315,-3.315,-3.317,-3.333,-3.3349,-3.3363,-3.3236,-3.3239,-3.324,-3.3329,0,-3.3014,-3.3081,-3.3068,-3.3133,-3.3163,-3.3134,-3.3168,-3.318,-3.3179,-3.3205,-3.3203,-3.3232,-3.3199,-3.3207,-3.3236,-3.3236,-3.3283,-3.3229,-3.3268,-3.327,-3.3267,-3.3378,-3.3399,-3.3482,-3.334,-3.3342,-3.3343,0,-3.3121,-3.314,-3.3209,-3.3218,-3.323,-3.3261,-3.3283,-3.3308,-3.3321,-3.3318,-3.3333,-3.3316,-3.3356,-3.3314,-3.3369,-3.3333,-3.3348,-3.3351,-3.3354,-3.3358,-3.3312,-3.3387,-3.3508,-3.3522,-3.3361,-3.3359,-3.3358,0,-3.3201,-3.3244,-3.3291,-3.33,-3.3311,-3.3333,-3.3339,-3.335,-3.3366,-3.3386,-3.3396,-3.342,-3.3434,-3.3454,-3.3444,-3.3414,-3.3502,-3.3459,-3.3501,-3.3502,-3.3522,-3.3521,-3.3649,-3.353,-3.3529,-3.3529,-3.3529,0,-3.3297,-3.3341,-3.3328,-3.3357,-3.3405,-3.339,-3.3438,-3.344,-3.345,-3.348,-3.3456,-3.3484,-3.3469,-3.3497,-3.349,-3.3537,-3.3543,-3.3543,-3.3541,-3.3546,-3.3546,-3.3556,-3.3551,-3.3533,-3.3532,-3.3531,-3.3531,0,-3.3395,-3.3388,-3.3437,-3.3444,-3.3446,-3.3482,-3.3487,-3.3515,-3.3512,-3.355,-3.3558,-3.3554,-3.3585,-3.3577,-3.3611,-3.3606,-3.3667,-3.3657,-3.3663,-3.3661,-3.3704,-3.3701,-3.3845,-3.3863,-3.3731,-3.3732,-3.3733,0,-3.3457,-3.349,-3.35,-3.3518,-3.3526,-3.3555,-3.3572,-3.3558,-3.3576,-3.3594,-3.362,-3.3649,-3.3672,-3.3723,-3.3724,-3.375,-3.3741,-3.379,-3.3745,-3.3749,-3.3744,-3.3742,-3.3746,-3.3799,-3.38,-3.3802,-3.3803,0,-3.3569,-3.3564,-3.3589,-3.3613,-3.3634,-3.3652,-3.3668,-3.3684,-3.3672,-3.3694,-3.3726,-3.3743,-3.3778,-3.3808,-3.3832,-3.3839,-3.382,-3.3817,-3.3828,-3.3834,-3.3837,-3.3838,-3.3688,-3.3814,-3.3812,-3.3812,-3.3811,-3.3811,-3.3652,-3.3681,-3.3693,-3.3721,-3.3732,-3.3748,-3.3774,-3.3775,-3.3801,-3.3828,-3.3818,-3.3855,-3.3868,-3.3899,-3.3908,-3.3937,-3.3919,-3.3935,-3.394,-3.3944,-3.3951,-3.3831,-3.3941,-3.3941,-3.3941,-3.3941,-3.394,0,-3.3764,-3.3771,-3.3797,-3.3821,-3.3844,-3.3822,-3.3839,-3.386,-3.3893,-3.3906,-3.3929,-3.3966,-3.3995,-3.3998,-3.4025,-3.4048,-3.404,-3.4056,-3.4055,-3.4057,-3.3965,-3.3952,-3.4062,-3.4062,-3.4062,-3.4062,-3.4062,-3.4062,-3.3826,-3.3873,-3.387,-3.3923,-3.3928,-3.3964,-3.3976,-3.399,-3.4001,-3.4044,-3.4068,-3.4069,-3.4079,-3.4107,-3.4133,-3.4133,-3.4145,-3.4164,-3.4161,-3.4075,-3.4063,-3.4052,-3.404,-3.4167,-3.4167,-3.4252,-3.4252,-3.4253]},{"header":{"parameterUnit":"m.s-1","parameterCategory":1,"la1":30.2991,"la2":30.254,"lo1":-89.0895,"lo2":-89.0444,"dy":0.0017,"dx":0.0017,"nx":28,"ny":28,"refTime":"2025-08-25T03:00:00:Z","depth":0,"parameterNumber":3,"parameterNumberName":"V-component_of_WINDS"},"data":[0,0,0,0,0,0,0,0,0,0,0,0,0,0,0,0,0,0,0,0,0,0,0,0,0,0,0,0,0,0,0,0,0,0,0,0,0,0,0,0,0,0,0,0,0,0,0,0,0,0,0,0,0,0,0,0,0,0,-2.3687,-2.3686,0,-2.3664,-2.3663,-2.3663,-2.3612,-2.361,-2.3609,-2.3608,-2.3587,-2.3587,-2.3587,0,0,0,0,0,0,0,0,0,0,0,0,0,-2.3687,-2.3687,-2.3687,-2.3686,-2.3686,-2.3664,-2.3663,-2.3663,-2.3612,-2.361,-2.3609,-2.3608,-2.3586,-2.3587,-2.3587,0,0,0,0,0,0,0,0,0,0,0,0,0,-2.3678,-2.3687,-2.3687,-2.3658,-2.3655,-2.3664,-2.3663,-2.3663,-2.3612,-2.361,-2.3609,-2.3607,-2.3586,-2.3587,-2.3588,-2.3623,0,0,-2.3589,-2.359,0,0,0,0,0,0,0,0,-2.3679,-2.3678,-2.3662,-2.366,-2.3656,-2.3639,-2.3656,-2.365,-2.3612,-2.3628,-2.3608,-2.3607,-2.3605,-2.3604,-2.3604,-2.3622,-2.3621,-2.3589,-2.359,-2.359,-2.359,0,0,0,0,0,0,0,-2.3679,-2.3679,-2.3678,-2.3662,-2.3659,-2.3646,-2.3643,-2.3654,-2.3626,-2.3627,-2.3623,-2.3621,-2.3604,-2.3603,-2.3603,-2.3621,-2.3589,-2.359,-2.359,-2.3591,-2.3668,-2.367,0,0,0,0,0,0,-2.3684,-2.368,-2.3678,-2.3677,-2.3664,-2.3648,-2.3644,-2.3646,-2.3626,-2.3621,-2.3622,-2.3619,-2.3603,-2.3602,-2.3602,-2.3643,-2.359,-2.3591,-2.3591,-2.3667,-2.3669,-2.3671,0,0,0,0,0,0,-2.3684,-2.3684,-2.3679,-2.3677,-2.3676,-2.3649,-2.3652,-2.3647,-2.3646,-2.3622,-2.3617,-2.3627,-2.3602,-2.3601,-2.3618,-2.3641,-2.3591,-2.3592,-2.3665,-2.3667,-2.367,-2.3725,0,0,0,0,0,0,-2.3684,-2.3685,-2.3698,-2.3678,-2.3676,-2.3696,-2.3653,-2.3647,-2.3647,-2.3642,-2.3625,-2.3621,-2.36,-2.3618,-2.3619,-2.3641,-2.3592,-2.3663,-2.3666,-2.3669,-2.3721,-2.3729,-2.3736,0,0,0,0,0,-2.3685,-2.3714,-2.3699,-2.3699,-2.3692,-2.3697,-2.3696,-2.3671,-2.3649,-2.3662,-2.3647,-2.3622,-2.3638,-2.362,-2.3621,-2.3644,-2.3661,-2.3665,-2.3669,-2.3718,-2.3728,-2.3736,0,0,0,0,0,0,-2.3738,-2.3711,-2.3694,-2.3718,-2.371,-2.3689,-2.3705,-2.3682,-2.3681,-2.3677,-2.3646,-2.3643,-2.3664,-2.3656,-2.3636,-2.3677,-2.3646,-2.365,-2.3683,-2.3692,-2.3699,-2.3701,-2.3593,0,0,0,0,0,-2.3753,-2.3759,-2.3736,-2.3759,-2.3756,-2.3731,-2.3733,-2.3714,-2.3705,-2.3702,-2.3688,-2.3681,-2.3684,-2.3687,-2.3689,-2.3719,-2.3715,-2.3735,-2.3743,-2.3749,-2.3754,-2.3769,-2.3778,-2.3683,-2.3683,-2.3683,0,0,-2.3784,-2.3769,-2.3776,-2.377,-2.3762,-2.377,-2.3729,-2.3739,-2.3745,-2.3704,-2.3719,-2.3709,-2.3699,-2.3723,-2.3733,-2.3716,-2.3779,-2.3754,-2.3759,-2.376,-2.3774,-2.3783,-2.3791,-2.3686,-2.3685,-2.3685,0,0,-2.3843,-2.3833,-2.3852,-2.3844,-2.3832,-2.3815,-2.382,-2.3802,-2.3793,-2.3808,-2.3777,-2.3784,-2.3791,-2.3785,-2.3783,-2.384,-2.3817,-2.3842,-2.3881,-2.3897,-2.3904,-2.3911,-2.3932,-2.394,-2.3846,-2.3846,-2.3846,0,-2.3883,-2.3893,-2.3865,-2.3877,-2.3875,-2.3837,-2.3857,-2.3851,-2.3841,-2.3841,-2.3822,-2.383,-2.382,-2.3843,-2.3857,-2.3856,-2.3861,-2.3844,-2.3905,-2.3912,-2.3917,-2.3937,-2.3945,-2.3849,-2.3849,-2.3848,-2.3848,0,-2.3943,-2.395,-2.3967,-2.3958,-2.3958,-2.3974,-2.3948,-2.3952,-2.3933,-2.3918,-2.3934,-2.3921,-2.392,-2.3924,-2.3905,-2.3944,-2.3934,-2.3911,-2.3878,-2.393,-2.3948,-2.3955,-2.3853,-2.3852,-2.3851,-2.3851,0,0,-2.4037,-2.4011,-2.4017,-2.4013,-2.3996,-2.4002,-2.4016,-2.4014,-2.4019,-2.4013,-2.4024,-2.403,-2.4009,-2.4007,-2.3987,-2.4001,-2.4048,-2.3976,-2.3975,-2.3991,-2.409,-2.4108,-2.4118,-2.4032,-2.4034,-2.4035,-2.4091,0,-2.4093,-2.4115,-2.409,-2.4118,-2.4125,-2.4089,-2.4101,-2.4093,-2.4079,-2.4083,-2.4068,-2.4074,-2.4045,-2.4043,-2.4055,-2.404,-2.4068,-2.4035,-2.4044,-2.4044,-2.4048,-2.4127,-2.4146,-2.42,-2.4098,-2.4099,-2.41,0,-2.4162,-2.4159,-2.4188,-2.417,-2.4172,-2.4183,-2.418,-2.4184,-2.4174,-2.4163,-2.4161,-2.4137,-2.415,-2.4118,-2.4136,-2.4114,-2.4116,-2.4109,-2.4111,-2.4111,-2.4076,-2.4131,-2.4217,-2.4225,-2.4111,-2.411,-2.4109,0,-2.4229,-2.4232,-2.4249,-2.4246,-2.4225,-2.4234,-2.4226,-2.4215,-2.4215,-2.4212,-2.4213,-2.4211,-2.4211,-2.4211,-2.4188,-2.4166,-2.4209,-2.4175,-2.4201,-2.4202,-2.4213,-2.4213,-2.4301,-2.4212,-2.4212,-2.4212,-2.4212,0,-2.4296,-2.4315,-2.4279,-2.429,-2.431,-2.4281,-2.4302,-2.429,-2.428,-2.4288,-2.4257,-2.4265,-2.4234,-2.424,-2.4222,-2.424,-2.424,-2.4232,-2.4227,-2.4235,-2.4236,-2.4237,-2.4233,-2.4214,-2.4214,-2.4213,-2.4213,0,-2.4374,-2.4351,-2.4367,-2.4346,-2.4341,-2.4357,-2.4339,-2.4349,-2.4333,-2.4344,-2.4345,-2.432,-2.4325,-2.4302,-2.4302,-2.429,-2.4318,-2.4306,-2.4321,-2.4318,-2.4346,-2.4344,-2.4439,-2.445,-2.4353,-2.4354,-2.4355,0,-2.4418,-2.4432,-2.4412,-2.4415,-2.4409,-2.4414,-2.4414,-2.4386,-2.4388,-2.4377,-2.4388,-2.439,-2.439,-2.44,-2.4382,-2.4383,-2.4371,-2.4405,-2.4371,-2.4379,-2.4373,-2.4373,-2.4374,-2.4412,-2.4413,-2.4414,-2.4415,0,-2.45,-2.4488,-2.4489,-2.4487,-2.4488,-2.4485,-2.4479,-2.4484,-2.4453,-2.4457,-2.4461,-2.4461,-2.4461,-2.4464,-2.4461,-2.4453,-2.443,-2.4425,-2.4432,-2.4441,-2.4449,-2.4446,-2.4341,-2.4424,-2.4423,-2.4422,-2.4422,-2.4421,-2.4563,-2.4574,-2.4561,-2.4564,-2.4557,-2.4553,-2.4561,-2.4546,-2.4548,-2.4546,-2.4529,-2.4537,-2.4527,-2.452,-2.4514,-2.452,-2.4505,-2.4514,-2.4516,-2.4519,-2.4524,-2.4447,-2.4519,-2.4519,-2.4519,-2.4519,-2.4518,0,-2.4644,-2.4634,-2.4637,-2.463,-2.4632,-2.4609,-2.4602,-2.4605,-2.4612,-2.4604,-2.4605,-2.461,-2.4613,-2.4595,-2.4595,-2.4603,-2.4593,-2.4605,-2.4604,-2.4603,-2.4538,-2.4533,-2.4613,-2.4613,-2.4613,-2.4613,-2.4613,-2.4613,-2.4686,-2.4703,-2.4689,-2.4703,-2.4692,-2.4699,-2.4697,-2.4694,-2.4687,-2.4694,-2.4696,-2.4684,-2.4672,-2.4671,-2.4673,-2.4668,-2.467,-2.4686,-2.4677,-2.4617,-2.4607,-2.4599,-2.4594,-2.4686,-2.4686,-2.4742,-2.4742,-2.4743]}]]